This is the latest recevied weather packets stored in our database for station/object OE3FJB-25. If no packets are shown the sender has not sent any weather packets the latest 10 day(s).
| Time | Temp. | Humidity | Pressure | Rain* | Wind** | Luminosity | Snow |
|---|---|---|---|---|---|---|---|
| 1777827449 | 19.44° C | 53% | 1017.4 hPa | - | - | - | - |
| 1777826850 | 19.44° C | 51% | 1017.5 hPa | - | - | - | - |
| 1777826249 | 20° C | 49% | 1017.5 hPa | - | - | - | - |
| 1777825650 | 20° C | 47% | 1017.6 hPa | - | - | - | - |
| 1777825051 | 20.56° C | 46% | 1017.5 hPa | - | - | - | - |
| 1777824453 | 20.56° C | 45% | 1017.6 hPa | - | - | - | - |
| 1777823854 | 21.11° C | 42% | 1017.6 hPa | - | - | - | - |
| 1777823256 | 21.11° C | 41% | 1017.6 hPa | - | - | - | - |
| 1777822657 | 21.11° C | 40% | 1017.6 hPa | - | - | - | - |
| 1777822059 | 21.67° C | 39% | 1017.6 hPa | - | - | - | - |
| 1777821460 | 21.67° C | 38% | 1017.6 hPa | - | - | - | - |
| 1777820862 | 21.67° C | 38% | 1017.7 hPa | - | - | - | - |
| 1777820263 | 22.22° C | 37% | 1017.8 hPa | - | - | - | - |
| 1777819664 | 22.22° C | 37% | 1018 hPa | - | - | - | - |
| 1777819066 | 22.22° C | 37% | 1018 hPa | - | - | - | - |
| 1777818467 | 22.22° C | 37% | 1018.1 hPa | - | - | - | - |
| 1777817869 | 22.22° C | 37% | 1018.1 hPa | - | - | - | - |
| 1777817270 | 22.22° C | 37% | 1018.2 hPa | - | - | - | - |
| 1777816672 | 22.22° C | 36% | 1018.4 hPa | - | - | - | - |
| 1777816073 | 22.22° C | 36% | 1018.5 hPa | - | - | - | - |
| 1777815474 | 22.78° C | 36% | 1018.5 hPa | - | - | - | - |
| 1777814876 | 22.22° C | 36% | 1018.6 hPa | - | - | - | - |
| 1777814277 | 22.22° C | 35% | 1018.8 hPa | - | - | - | - |
| 1777813679 | 22.78° C | 36% | 1018.9 hPa | - | - | - | - |
| 1777813080 | 22.78° C | 36% | 1019.1 hPa | - | - | - | - |
* Rain since midnight (hover to see other rain measurements)
** Current wind speed in m/s (hover to see current wind gust speed)